York, NE

7:40 AM CST on December 14, 2019 (GMT -0600)
York Municipal

Weather History for KJYR - October, 2019

Change the Weather History Date:

Friday, October 4, 2019

  Actual Average Record
Temperature  
Mean Temperature 46 °F -  
Max Temperature 51 °F 72 °F 93 °F (2005)
Min Temperature 42 °F 45 °F 29 °F (1950)
Degree Days  
Heating Degree Days 18    
Moisture  
Dew Point 45 °F    
Average Humidity 90    
Maximum Humidity 100    
Minimum Humidity 82    
Precipitation  
Precipitation 0.07 in - - ()
Sea Level Pressure  
Sea Level Pressure 30.23 in    
Wind  
Wind Speed 9 mph (SE)    
Max Wind Speed 20 mph    
Max Gust Speed 26 mph    
Visibility 10 miles    
Events Rain , Thunderstorm    
Averages and records for this station are not official NWS values.
T = Trace of Precipitation, MM = Missing Value Source: NWS Daily Summary

Daily Weather History Graph

Daily Weather History Graph

Search for Another Location

Airport or City:

Astronomy

Oct. 04, 2019 Rise Set
Actual Time 7:29 AM CDT 7:07 PM CDT
Civil Twilight 7:02 AM CDT 7:35 PM CDT
Nautical Twilight 6:30 AM CDT 8:06 PM CDT
Astronomical Twilight 5:58 AM CDT 8:38 PM CDT
Moon 2:05 PM CDT (10/4) 11:35 PM CDT (10/4)
Length of Visible Light 12h 32m
Length of Day
11h 37m
Waxing Crescent, 40% of the Moon is Illuminated
Oct 4
Waxing Crescent
Oct 5
First Quarter
Oct 13
Full
Oct 21
Last Quarter
Oct 27
New

Hourly Weather History & Observations

Time (CDT) Temp. Windchill Dew Point Humidity Pressure Visibility Wind Dir Wind Speed Gust Speed Precip Events Conditions
12:15 AM 44.6 °F 40.7 °F 41.0 °F 87% 30.35 in 10.0 mi East 6.9 mph - N/A   Clear
12:35 AM 44.6 °F 40.2 °F 41.0 °F 87% 30.35 in 10.0 mi East 8.1 mph - N/A   Scattered Clouds
12:55 AM 44.6 °F 39.7 °F 42.8 °F 93% 30.34 in 10.0 mi East 9.2 mph - N/A   Overcast
1:15 AM 44.6 °F 39.2 °F 41.0 °F 87% 30.34 in 10.0 mi East 10.4 mph - N/A   Overcast
1:35 AM 44.6 °F 42.2 °F 41.0 °F 87% 30.36 in 10.0 mi ESE 4.6 mph - N/A   Mostly Cloudy
1:55 AM 44.6 °F 41.4 °F 41.0 °F 87% 30.36 in 10.0 mi East 5.8 mph - N/A   Partly Cloudy
2:15 AM 42.8 °F - 41.0 °F 93% 30.37 in 10.0 mi Calm Calm - N/A   Partly Cloudy
2:35 AM 42.8 °F 40.1 °F 41.0 °F 93% 30.37 in 10.0 mi East 4.6 mph - N/A   Mostly Cloudy
2:55 AM 44.6 °F 41.4 °F 41.0 °F 87% 30.36 in 10.0 mi East 5.8 mph - N/A   Overcast
3:15 AM 44.6 °F 40.2 °F 41.0 °F 87% 30.36 in 10.0 mi East 8.1 mph - N/A   Overcast
3:35 AM 44.6 °F 40.2 °F 41.0 °F 87% 30.35 in 10.0 mi ENE 8.1 mph - N/A   Overcast
3:55 AM 44.6 °F 40.7 °F 41.0 °F 87% 30.35 in 10.0 mi East 6.9 mph - N/A   Overcast
4:15 AM 44.6 °F 40.7 °F 41.0 °F 87% 30.35 in 10.0 mi East 6.9 mph - N/A   Overcast
4:35 AM 44.6 °F 42.2 °F 42.8 °F 93% 30.35 in 10.0 mi East 4.6 mph - N/A   Overcast
4:55 AM 44.6 °F 40.7 °F 41.0 °F 87% 30.35 in 10.0 mi ESE 6.9 mph - N/A   Overcast
5:15 AM 44.6 °F 41.4 °F 41.0 °F 87% 30.34 in 10.0 mi East 5.8 mph - N/A   Overcast
5:35 AM 44.6 °F 40.7 °F 41.0 °F 87% 30.34 in 10.0 mi East 6.9 mph - N/A   Mostly Cloudy
5:55 AM 44.6 °F 39.2 °F 41.0 °F 87% 30.33 in 10.0 mi East 10.4 mph - N/A   Clear
6:15 AM 44.6 °F 42.2 °F 41.0 °F 87% 30.35 in 10.0 mi ESE 4.6 mph - N/A   Partly Cloudy
6:35 AM 44.6 °F 40.7 °F 42.8 °F 93% 30.34 in 10.0 mi ESE 6.9 mph - N/A   Mostly Cloudy
6:55 AM 44.6 °F 40.2 °F 42.8 °F 93% 30.34 in 10.0 mi ESE 8.1 mph - N/A   Overcast
7:15 AM 44.6 °F 40.2 °F 42.8 °F 93% 30.35 in 10.0 mi ESE 8.1 mph - N/A   Overcast
7:35 AM 44.6 °F 40.2 °F 42.8 °F 93% 30.34 in 10.0 mi ESE 8.1 mph - N/A   Overcast
7:55 AM 44.6 °F 40.2 °F 42.8 °F 93% 30.34 in 10.0 mi ESE 8.1 mph - N/A   Overcast
8:15 AM 44.6 °F 39.2 °F 42.8 °F 93% 30.32 in 10.0 mi ESE 10.4 mph - N/A   Overcast
8:35 AM 46.4 °F 41.9 °F 44.6 °F 93% 30.33 in 10.0 mi ESE 9.2 mph - N/A   Overcast
8:55 AM 46.4 °F 42.4 °F 44.6 °F 93% 30.33 in 10.0 mi ESE 8.1 mph - N/A   Overcast
9:15 AM 46.4 °F 41.1 °F 44.6 °F 93% 30.33 in 10.0 mi ESE 11.5 mph - N/A   Overcast
9:35 AM 46.4 °F 41.1 °F 44.6 °F 93% 30.33 in 10.0 mi ESE 11.5 mph - N/A   Overcast
9:55 AM 48.2 °F - 44.6 °F 87% 30.33 in 10.0 mi SE 11.5 mph - N/A   Overcast
10:15 AM 50.0 °F - 44.6 °F 82% 30.32 in 10.0 mi SE 12.7 mph 16.1 mph N/A   Overcast
10:35 AM 48.2 °F - 44.6 °F 87% 30.33 in 10.0 mi ESE 13.8 mph - N/A   Overcast
10:55 AM 48.2 °F - 44.6 °F 87% 30.34 in 10.0 mi SE 10.4 mph - N/A   Overcast
11:15 AM 50.0 °F - 44.6 °F 82% 30.32 in 10.0 mi SE 11.5 mph - N/A   Overcast
11:35 AM 48.2 °F - 44.6 °F 87% 30.31 in 10.0 mi SE 8.1 mph 17.3 mph N/A   Overcast
11:55 AM 48.2 °F - 44.6 °F 87% 30.30 in 5.0 mi SE 10.4 mph - 0.02 in Rain Light Rain
12:15 PM 48.2 °F - 46.4 °F 93% 30.28 in 8.0 mi ESE 11.5 mph - 0.01 in Rain Light Rain
12:35 PM 50.0 °F - 46.4 °F 87% 30.27 in 10.0 mi ESE 10.4 mph - 0.01 in   Scattered Clouds
12:55 PM 51.8 °F - 46.4 °F 82% 30.27 in 10.0 mi SSE 11.5 mph - 0.01 in   Mostly Cloudy
1:15 PM 50.0 °F - 46.4 °F 87% 30.25 in 10.0 mi SE 16.1 mph - N/A   Overcast
1:35 PM 51.8 °F - 46.4 °F 82% 30.25 in 10.0 mi SE 12.7 mph - N/A   Overcast
1:55 PM 51.8 °F - 46.4 °F 82% 30.24 in 10.0 mi SSE 9.2 mph - N/A   Overcast
2:15 PM 50.0 °F - 46.4 °F 87% 30.23 in 10.0 mi SSE 10.4 mph 17.3 mph N/A   Overcast
2:35 PM 50.0 °F - 46.4 °F 87% 30.21 in 10.0 mi SE 15.0 mph - N/A Rain Light Rain
2:55 PM 50.0 °F - 48.2 °F 94% 30.19 in 10.0 mi SE 15.0 mph - N/A Rain Light Rain
3:15 PM 51.8 °F - 48.2 °F 88% 30.18 in 10.0 mi SE 12.7 mph - N/A   Overcast
3:35 PM 50.0 °F - 46.4 °F 87% 30.18 in 10.0 mi SSE 10.4 mph - N/A   Overcast
3:55 PM 51.8 °F - 46.4 °F 82% 30.17 in 10.0 mi SSE 9.2 mph - N/A   Overcast
4:15 PM 51.8 °F - 46.4 °F 82% 30.16 in 10.0 mi SSE 15.0 mph 19.6 mph N/A   Overcast
4:35 PM 51.8 °F - 46.4 °F 82% 30.15 in 10.0 mi SSE 16.1 mph - N/A   Overcast
4:55 PM 51.8 °F - 48.2 °F 88% 30.13 in 10.0 mi SE 13.8 mph 19.6 mph N/A   Overcast
5:15 PM 51.8 °F - 48.2 °F 88% 30.13 in 10.0 mi SE 11.5 mph 19.6 mph N/A   Overcast
5:35 PM 50.0 °F - 48.2 °F 94% 30.12 in 10.0 mi SE 17.3 mph - N/A   Overcast
5:55 PM 50.0 °F - 48.2 °F 94% 30.11 in 10.0 mi SE 15.0 mph 24.2 mph N/A   Overcast
6:15 PM 50.0 °F - 48.2 °F 94% 30.11 in 10.0 mi SE 16.1 mph 19.6 mph N/A   Overcast
6:35 PM 50.0 °F - 48.2 °F 94% 30.09 in 10.0 mi SE 13.8 mph 23.0 mph N/A   Overcast
6:55 PM 50.0 °F - 48.2 °F 94% 30.09 in 10.0 mi SE 17.3 mph 23.0 mph N/A   Overcast
7:15 PM 50.0 °F - 48.2 °F 94% 30.09 in 10.0 mi SSE 15.0 mph 23.0 mph N/A   Overcast
7:35 PM 50.0 °F - 48.2 °F 94% 30.09 in 10.0 mi SSE 15.0 mph - N/A   Overcast
7:55 PM 50.0 °F - 48.2 °F 94% 30.08 in 10.0 mi SE 15.0 mph 20.7 mph N/A   Overcast
8:15 PM 50.0 °F - 48.2 °F 94% 30.08 in 10.0 mi SSE 11.5 mph 21.9 mph N/A   Overcast
8:35 PM 50.0 °F - 48.2 °F 94% 30.05 in 10.0 mi SE 17.3 mph 21.9 mph N/A Rain Light Rain
8:55 PM 50.0 °F - 48.2 °F 94% 30.05 in 10.0 mi SSE 15.0 mph - 0.01 in Rain Light Rain
9:15 PM 50.0 °F - 48.2 °F 94% 30.02 in 10.0 mi SE 19.6 mph 26.5 mph 0.01 in Rain Light Rain
9:35 PM 50.0 °F - 48.2 °F 94% 30.04 in 10.0 mi SSE 16.1 mph 25.3 mph 0.01 in Rain , Thunderstorm Light Rain
9:55 PM 50.0 °F - 48.2 °F 94% 30.03 in 10.0 mi SSE 12.7 mph 18.4 mph 0.01 in Thunderstorm Overcast
10:15 PM 50.0 °F - 48.2 °F 94% 30.01 in 10.0 mi SSE 13.8 mph 18.4 mph N/A   Overcast
10:35 PM 50.0 °F - 48.2 °F 94% 30.02 in 10.0 mi South 11.5 mph 19.6 mph N/A Thunderstorm Overcast
10:55 PM 50.0 °F - 50.0 °F 100% 30.00 in 6.0 mi SSE 17.3 mph 21.9 mph 0.02 in Rain Light Rain
11:15 PM 50.0 °F - 50.0 °F 100% 30.00 in 10.0 mi SSE 12.7 mph 18.4 mph N/A Rain , Thunderstorm Light Rain
11:35 PM 50.0 °F - 50.0 °F 100% 29.98 in 10.0 mi SSE 10.4 mph - N/A   Overcast
11:55 PM 51.8 °F - 50.0 °F 94% 29.97 in 10.0 mi SSE 10.4 mph 19.6 mph N/A   Overcast